GFSNGP_sfc_dewp_021.txt.gz
Dewpoint
26 19 17 20 19 20 22 25 26 28 37 42 42 43 48 52 59 60 62 61 64 65 65 65 65 66 64 64 64 65 66 65 66 67 67 68 67 66 66 66 66 66 66 66
28 22 17 17 17 18 20 23 26 27 34 48 46 49 46 54 59 60 61 61 64 64 63 63 66 65 64 65 66 65 65 65 67 68 68 69 67 66 67 65 66 66 64 64
30 24 20 23 22 19 21 25 26 27 33 40 40 49 50 54 59 59 59 61 64 62 64 66 65 66 66 66 69 69 70 67 67 69 69 69 67 66 66 65 65 64 64 63
29 30 24 26 25 26 23 23 26 30 35 45 51 52 53 56 59 60 59 62 63 62 65 66 67 67 68 67 68 67 67 67 68 70 70 70 68 67 66 64 64 63 63 63
27 26 26 24 28 28 26 28 28 29 35 46 50 53 57 59 60 61 61 64 65 65 66 67 66 66 67 66 66 66 65 65 65 67 69 69 68 67 66 64 63 63 62 62
28 26 27 29 31 36 34 34 36 43 41 45 46 32 57 62 66 66 67 68 66 65 65 65 64 65 65 64 62 61 60 61 62 63 66 67 67 66 66 64 63 61 61 61
25 27 27 32 44 45 33 42 55 54 51 47 48 60 63 65 66 66 66 65 64 64 63 63 63 62 62 61 60 60 60 60 60 59 60 64 65 65 65 64 62 61 59 58
27 26 25 41 44 41 58 59 59 58 58 61 63 61 60 61 62 62 62 62 63 62 62 62 62 62 61 58 58 59 59 58 57 57 56 57 58 59 59 62 60 59 58 56
32 29 55 53 57 60 60 60 61 60 58 61 59 59 59 59 60 61 61 62 61 61 60 59 60 60 59 58 58 58 57 57 56 55 54 54 54 55 54 54 57 55 51 51
40 40 50 53 56 60 61 61 61 60 59 58 59 59 59 58 59 59 60 60 60 60 59 58 58 58 58 58 58 58 56 54 53 52 51 52 53 53 52 52 52 50 50 52
40 52 50 55 57 59 60 61 60 60 60 59 60 59 59 58 59 59 60 60 59 58 58 57 57 57 57 57 58 57 56 54 52 50 48 47 46 48 50 49 51 52 52 52
45 53 55 56 58 58 58 59 60 60 60 60 60 59 59 58 59 60 60 59 59 57 57 56 56 57 57 57 57 57 55 53 51 50 49 48 48 46 43 43 42 42 43 46
47 52 54 56 57 57 58 58 59 60 60 60 59 59 59 59 60 59 58 57 57 56 56 56 56 57 57 57 57 56 54 53 50 50 50 49 48 48 46 42 40 38 38 39
48 49 51 49 51 54 56 57 57 59 59 59 60 59 59 59 57 57 55 56 56 56 56 56 56 56 56 57 57 56 53 44 47 44 42 42 45 46 46 46 45 43 38 40
45 46 46 49 50 52 54 55 55 58 58 58 59 59 58 57 57 56 56 56 56 55 55 55 54 55 55 54 49 44 38 35 34 33 33 35 34 33 33 37 38 40 39 37
45 45 46 45 51 50 50 52 54 55 58 58 58 58 57 56 57 56 55 55 55 53 54 54 55 53 47 44 44 40 39 44 40 35 34 35 35 34 34 36 37 36 35 35
44 43 42 47 49 45 47 50 52 54 57 58 58 57 56 56 56 55 55 55 55 54 55 55 51 46 45 45 42 37 35 37 43 36 36 36 36 36 36 35 33 32 35 34
47 47 46 46 49 48 47 46 49 55 56 57 57 57 56 55 55 55 55 55 55 54 51 49 47 46 45 44 42 39 38 37 38 37 39 40 39 40 40 38 37 35 32 33
45 46 45 45 46 46 48 46 48 52 57 57 55 57 58 57 56 56 55 55 54 51 48 47 51 48 47 47 45 39 39 39 39 40 42 42 42 40 39 39 38 37 36 32
44 45 45 45 45 46 46 44 47 54 51 57 59 58 57 57 57 56 56 55 52 47 48 46 46 47 48 48 48 41 40 42 42 42 43 41 41 40 40 41 40 38 37 37
46 46 47 47 46 47 47 46 44 54 53 55 57 58 57 57 57 56 55 51 52 49 48 48 47 46 46 46 43 42 46 45 47 48 47 42 43 42 42 41 39 43 42 44
48 48 48 49 51 52 51 47 46 49 52 56 57 58 57 56 57 55 56 52 49 48 44 42 47 49 47 49 44 43 44 47 41 41 41 41 40 41 41 41 40 40 40 41
50 50 52 52 53 55 51 51 50 54 56 58 58 57 57 56 56 54 51 55 51 48 47 45 46 47 47 45 42 39 40 39 39 38 39 39 39 39 37 37 36 36 35 35
52 53 54 57 58 58 57 58 58 58 59 59 58 59 60 59 55 52 51 48 47 46 44 45 46 47 45 44 44 43 42 42 42 43 41 39 35 34 33 34 33 33 33 33
53 55 56 56 55 56 57 57 56 55 55 56 56 57 56 55 54 53 51 49 48 48 48 48 48 49 51 51 51 51 50 50 48 40 37 36 35 32 33 33 32 33 33 35
55 55 55 55 55 55 55 56 54 53 52 51 51 51 52 52 52 53 52 52 52 51 52 52 52 51 51 51 51 49 47 44 42 40 37 37 37 37 38 38 37 38 40 40
55 53 56 54 55 55 53 52 53 53 52 51 50 51 51 51 51 51 50 52 53 52 53 53 52 51 52 46 40 39 38 38 37 37 37 37 39 39 40 39 40 40 39 39

GFSNGP_sfc_dewp_024.txt.gz
Dewpoint
23 20 21 21 23 20 21 23 23 25 33 44 50 50 54 56 62 61 63 63 66 66 69 68 68 68 67 65 66 68 68 67 70 69 70 70 69 69 68 68 65 67 66 65
28 25 22 19 16 17 17 18 22 22 29 45 52 50 52 54 59 63 64 63 66 67 67 67 67 68 69 68 68 69 68 66 71 70 71 70 69 68 68 66 65 67 66 64
30 27 25 25 20 18 20 20 20 24 38 51 53 56 55 57 60 60 62 64 66 66 65 67 67 70 69 71 71 70 68 70 70 70 70 69 69 67 67 66 65 66 65 64
33 34 27 27 28 25 30 25 22 29 48 52 50 52 48 55 60 61 61 64 66 64 66 68 67 70 71 69 70 68 69 68 68 69 69 70 69 68 67 65 63 63 64 63
33 28 28 25 34 33 31 29 49 49 52 53 55 54 57 56 60 63 63 67 66 66 69 69 69 69 69 68 69 67 65 65 64 64 66 70 67 66 66 65 65 64 64 63
33 28 26 32 27 36 39 32 53 48 51 50 54 51 62 66 67 66 67 67 68 69 68 68 67 68 68 66 63 62 61 61 62 62 62 68 67 66 66 65 63 62 61 60
30 28 27 32 28 51 48 50 56 52 50 54 53 55 66 66 67 68 68 66 67 66 66 65 65 66 64 62 60 60 60 60 59 59 59 62 64 65 65 63 63 61 60 59
32 30 26 28 39 46 59 59 58 57 57 64 63 62 64 64 64 65 64 64 64 63 63 65 65 64 61 59 60 60 59 57 56 56 56 57 58 58 60 62 60 59 57 54
37 34 56 55 59 61 61 60 60 60 58 61 59 60 60 61 61 62 62 64 62 62 61 61 63 62 59 59 59 58 57 56 55 54 54 54 55 55 55 55 54 53 52 52
43 46 53 56 58 58 60 60 59 58 59 58 59 59 59 60 61 61 62 61 61 60 59 58 59 59 59 59 59 57 55 54 53 51 51 52 53 53 53 53 52 51 51 51
43 51 57 56 56 57 58 60 59 61 61 60 60 59 59 59 60 61 62 61 61 61 59 58 59 59 59 58 58 56 55 54 52 51 50 49 47 49 51 50 51 52 52 52
52 54 56 56 57 57 56 56 58 60 61 61 60 59 59 59 60 61 61 61 61 60 59 58 59 57 58 60 59 58 56 53 52 51 50 50 49 47 44 44 43 42 44 47
52 52 55 55 53 54 54 56 59 60 61 59 60 59 59 59 60 59 59 59 57 57 57 58 58 57 58 59 58 58 56 55 52 51 51 50 50 49 47 43 40 39 39 38
48 48 48 50 51 52 52 54 58 59 59 60 59 60 59 59 59 57 57 57 57 57 56 57 57 57 58 58 59 59 57 50 53 51 50 50 51 50 48 47 45 44 39 40
44 44 45 45 50 56 56 51 59 58 59 59 60 59 58 58 58 56 57 56 57 56 56 56 56 56 57 56 55 54 49 42 43 41 40 43 44 40 36 43 45 43 41 38
42 42 44 45 45 49 48 50 52 57 58 59 59 58 58 58 58 56 56 57 56 56 57 56 56 57 54 51 52 46 43 46 43 41 37 39 37 36 37 42 45 42 41 39
41 41 43 44 48 51 46 47 49 55 57 58 59 59 59 58 56 56 56 57 57 57 58 57 55 52 51 52 49 40 35 38 45 37 37 37 37 39 39 39 38 36 40 38
42 44 43 42 45 50 46 46 45 56 59 61 59 58 57 57 56 56 56 56 56 56 56 55 52 51 51 50 49 43 39 39 39 38 40 42 40 41 41 39 38 36 38 36
45 42 41 42 43 45 48 47 47 49 60 61 58 56 57 56 57 57 57 56 56 55 54 52 52 51 53 52 49 41 39 39 39 41 43 46 44 44 45 44 44 44 41 34
47 47 47 42 43 45 46 47 48 52 59 59 58 57 57 58 57 57 57 56 57 54 54 51 50 52 53 53 49 42 41 42 45 47 47 44 46 45 43 42 41 41 42 45
45 46 47 47 45 45 46 47 49 51 54 59 59 59 59 59 58 57 56 54 57 52 51 50 48 48 49 46 43 43 46 49 48 48 45 46 46 43 43 45 44 42 41 43
46 45 47 48 49 49 52 50 51 52 57 59 60 59 59 58 57 57 58 54 50 48 45 43 48 52 48 50 45 42 45 45 46 46 44 43 43 44 45 44 39 39 41 45
48 48 49 50 51 53 52 52 54 51 54 59 60 59 59 57 57 55 56 52 48 48 43 45 48 49 49 48 43 41 41 42 43 43 43 43 42 41 39 37 37 38 39 37
50 51 52 52 53 56 55 57 59 59 61 60 59 60 59 54 52 49 47 47 46 46 46 46 47 47 46 45 45 46 46 46 45 46 47 43 41 38 39 39 36 37 41 41
52 54 55 56 55 56 56 56 56 56 56 56 56 55 54 55 52 51 50 48 45 46 47 48 48 48 49 50 51 50 50 50 49 47 43 42 40 39 41 41 40 41 42 42
55 56 56 56 56 56 56 55 54 54 53 51 52 52 53 54 53 53 52 51 52 50 52 51 51 51 51 51 50 50 48 47 45 43 43 43 41 40 40 39 40 41 40 40
55 52 55 54 54 54 55 54 53 52 52 52 51 52 52 52 52 52 51 53 53 52 52 51 51 51 49 48 47 46 44 39 37 37 38 40 41 41 40 39 39 38 36 35

GFSNGP_sfc_dewp_030.txt.gz
Dewpoint
28 28 27 29 27 27 25 26 25 24 33 40 47 48 55 53 54 55 53 57 62 63 64 62 59 60 59 61 63 66 66 66 67 67 66 65 65 64 63 63 63 61 60 59
24 31 31 30 29 31 31 35 30 39 40 50 50 51 53 54 57 59 60 63 64 66 65 64 64 62 59 60 65 67 66 67 68 67 66 65 64 63 62 63 62 60 59 58
20 31 34 26 29 30 37 45 43 33 38 49 52 51 52 56 57 57 59 65 65 65 66 65 64 64 64 66 67 68 68 68 68 67 66 65 65 64 63 62 61 59 58 56
34 34 30 32 35 49 50 52 51 49 50 50 52 52 54 58 56 57 59 64 65 66 65 64 66 68 68 68 67 65 64 64 64 65 66 66 65 64 64 62 61 58 57 53
31 33 33 31 41 41 43 50 54 53 53 54 55 53 51 55 57 50 60 63 66 65 65 67 67 66 65 64 63 62 61 61 61 61 62 66 66 64 64 62 60 59 56 53
31 28 28 32 41 45 48 45 54 53 54 54 55 50 51 54 65 65 64 65 66 66 66 66 64 63 62 61 61 59 59 59 58 60 61 66 65 63 64 63 59 57 54 53
31 30 32 36 31 44 34 35 53 52 53 54 53 53 53 61 64 64 64 63 64 63 63 62 62 62 60 59 58 57 57 56 56 57 59 62 64 64 63 60 57 54 51 50
32 31 27 52 54 43 49 55 54 55 55 55 56 58 63 63 61 62 61 61 61 61 60 60 59 59 57 57 56 56 56 56 55 55 56 58 60 62 61 59 56 52 51 50
30 32 52 57 57 58 56 57 58 56 57 57 59 61 61 61 60 59 60 61 60 60 59 59 58 58 56 56 55 54 54 54 53 53 54 54 56 57 56 56 54 53 51 50
47 53 53 55 57 59 61 62 62 60 59 61 61 60 59 59 59 59 59 59 58 59 58 58 56 57 56 55 55 54 54 52 51 50 50 51 52 53 54 53 53 52 51 50
50 52 55 55 55 57 61 63 63 62 62 61 60 59 59 59 60 60 60 59 57 57 57 58 57 58 57 56 55 53 51 50 50 49 49 48 47 49 50 48 51 52 52 52
47 51 53 55 55 57 58 62 62 61 61 61 59 58 60 60 59 59 59 57 57 57 58 58 58 58 58 55 53 52 50 49 48 47 46 47 47 45 44 44 43 43 45 47
48 52 52 55 59 59 59 62 62 61 60 59 58 58 58 60 60 59 59 58 57 57 58 57 57 57 57 56 54 52 51 50 49 48 47 46 44 44 44 43 41 40 40 41
45 46 47 52 52 55 61 62 60 60 59 59 58 58 58 59 59 59 58 58 57 57 57 56 56 56 57 57 55 52 51 51 50 50 48 47 46 45 43 43 42 41 39 38
43 44 44 46 48 51 56 59 59 58 58 58 58 58 58 57 58 58 58 58 57 56 56 56 56 56 57 56 54 53 53 52 51 51 50 49 48 46 45 44 42 41 39 38
43 44 44 44 44 47 50 54 56 58 58 58 58 58 58 58 58 57 57 56 55 55 55 55 55 55 56 55 54 51 52 52 49 44 47 49 50 48 47 46 43 41 38 37
39 40 41 42 43 44 46 48 49 52 58 58 58 58 58 58 56 55 55 55 56 55 55 55 55 56 55 50 46 38 37 37 43 40 39 40 46 44 46 45 43 41 39 38
47 46 46 46 46 46 46 46 49 51 54 57 59 58 57 57 56 56 55 55 56 55 55 55 52 49 46 46 43 37 37 37 39 39 41 40 39 38 39 40 42 42 42 40
46 46 46 47 48 48 48 49 49 50 57 59 58 57 57 57 57 55 55 55 54 54 53 49 53 49 47 47 44 42 40 40 42 42 42 44 44 44 42 43 42 39 39 38
45 45 45 45 46 48 50 50 52 52 54 58 57 56 56 56 56 55 55 54 54 54 50 47 48 47 48 46 48 46 46 44 45 43 44 45 45 44 44 42 41 41 37 35
47 48 46 46 46 48 51 52 53 53 54 57 56 55 56 56 56 57 55 55 55 51 47 50 46 49 47 45 47 47 47 45 44 43 42 42 42 41 41 39 38 43 42 43
48 48 48 48 47 48 50 52 54 54 54 54 56 56 55 56 56 56 57 56 55 49 46 45 47 49 47 47 44 44 44 44 44 44 44 44 44 43 42 41 42 42 43 43
49 49 49 48 48 48 49 52 52 53 53 53 55 55 56 57 57 56 55 53 49 47 45 46 49 48 48 44 44 45 46 46 46 45 44 42 40 41 42 42 42 42 41 40
51 50 50 51 50 50 49 50 50 51 52 55 55 53 53 53 51 53 51 47 46 46 47 48 46 47 46 45 45 45 45 45 45 44 44 42 41 42 42 41 40 40 39 38
52 50 49 50 50 50 52 53 52 51 50 52 52 52 51 51 51 50 48 47 46 46 46 47 47 47 46 47 48 48 48 47 46 43 43 42 41 41 41 40 39 38 36 35
52 50 54 55 54 54 53 52 51 51 51 50 51 51 51 51 51 51 51 50 49 48 49 49 49 50 50 49 48 47 46 46 44 43 41 41 40 40 39 38 37 35 34 32
53 50 53 53 53 53 52 52 51 51 51 51 50 51 51 51 50 50 49 50 50 50 50 50 50 50 48 47 46 44 41 41 40 41 40 40 39 39 38 37 36 34 33 31

GFSNGP_sfc_dewp_033.txt.gz
Dewpoint
25 26 25 27 29 28 25 25 24 26 29 35 46 50 53 51 53 55 55 57 60 63 64 63 62 62 62 60 65 66 66 66 66 65 65 64 64 63 62 62 61 59 58 58
24 31 29 28 28 31 34 41 34 38 40 49 50 51 53 53 56 57 59 60 62 63 64 64 62 60 61 60 63 65 66 66 67 65 65 65 64 62 62 61 59 59 57 56
17 34 28 19 32 37 45 49 47 32 40 49 48 51 53 54 55 55 58 60 63 56 65 65 65 64 60 60 65 67 67 67 67 66 65 64 64 63 62 60 59 58 55 53
31 29 17 27 48 45 50 52 51 48 49 51 50 50 52 55 58 58 56 60 62 58 66 66 66 66 66 65 65 65 65 65 66 66 65 64 64 63 63 61 59 57 54 52
29 30 29 41 47 39 40 47 53 50 51 54 54 53 51 56 58 57 58 61 64 65 65 67 66 65 64 64 63 62 61 61 61 63 64 65 64 63 63 61 59 57 54 51
31 26 25 30 40 50 41 34 54 54 51 52 53 43 50 58 64 64 64 64 63 65 66 65 64 65 65 64 63 60 59 59 61 60 62 64 65 64 63 61 58 55 52 51
33 28 30 35 44 44 27 28 53 54 52 53 50 51 54 61 62 63 63 63 63 63 62 62 61 62 62 60 59 59 57 58 59 59 60 64 64 63 60 58 54 51 49 48
31 28 23 55 55 38 41 53 53 53 52 53 55 61 63 62 62 62 61 61 61 60 59 59 58 59 59 56 56 57 56 56 57 57 57 60 63 61 59 56 53 51 50 51
30 31 52 55 55 56 54 55 55 54 54 56 58 59 61 61 60 61 61 60 61 59 57 57 59 58 56 55 55 56 55 54 55 55 55 56 59 59 57 55 54 52 51 51
48 51 52 54 57 60 61 60 62 59 58 59 57 60 60 60 59 59 59 59 59 59 58 57 57 57 55 56 56 57 56 55 52 51 51 53 54 55 55 54 53 52 51 51
50 52 53 54 55 57 59 59 62 61 60 59 60 59 60 59 59 59 59 58 58 58 57 57 57 56 56 57 55 54 54 51 50 50 50 49 47 50 51 50 52 52 52 51
46 51 51 52 55 57 59 61 61 60 60 61 60 59 59 59 58 60 59 57 57 57 57 57 58 57 55 54 53 52 49 48 49 49 49 49 47 45 44 44 43 45 46 47
48 51 54 56 58 58 60 61 61 61 60 59 59 59 58 58 58 59 59 58 57 57 57 57 57 57 56 53 51 50 48 47 47 46 46 45 45 45 45 44 41 39 40 43
50 48 51 53 53 58 60 62 60 60 59 59 58 58 58 58 57 58 58 58 57 57 57 57 56 56 57 54 52 50 49 49 47 46 46 45 44 44 43 43 43 42 40 39
44 44 48 48 51 53 59 60 58 58 58 58 58 57 57 57 57 58 58 58 57 57 57 56 56 56 57 57 53 51 50 50 48 48 47 46 45 44 43 42 41 41 39 39
44 44 43 43 45 48 52 56 55 56 57 57 57 57 58 57 57 57 57 57 55 56 56 56 56 56 57 55 53 52 51 52 50 49 48 47 46 45 44 43 41 40 39 37
40 40 42 44 45 44 46 48 48 51 57 57 57 57 57 57 56 55 56 57 56 56 56 55 55 55 56 55 54 51 51 50 50 47 49 49 49 48 46 46 43 41 39 38
46 46 46 46 46 47 48 49 49 49 52 57 58 57 57 57 56 55 55 56 56 55 55 55 55 55 55 50 45 38 38 39 40 39 41 43 46 47 46 46 46 43 41 40
45 45 45 46 48 48 48 50 51 51 51 55 56 56 57 57 55 55 56 55 55 55 55 54 55 50 46 47 44 37 38 39 40 40 41 41 40 40 41 42 41 41 42 41
47 47 46 46 46 48 49 51 53 52 52 54 55 55 55 55 55 55 55 54 55 56 54 51 47 46 46 48 50 43 43 42 43 42 44 44 44 43 41 39 42 40 37 37
46 47 48 48 47 47 47 51 52 52 53 53 54 54 54 54 55 55 53 54 55 54 51 51 46 48 45 47 48 46 46 45 44 42 41 41 40 40 39 42 42 42 42 43
47 48 48 49 48 48 48 49 51 53 52 52 53 54 54 53 55 54 54 55 54 50 49 47 48 49 47 48 44 43 43 44 44 44 44 43 42 42 42 43 43 42 42 41
47 47 48 48 48 48 48 48 49 51 51 52 53 53 54 55 56 55 54 55 55 52 53 51 50 49 49 44 44 45 45 45 44 43 41 41 43 43 43 42 42 41 40 39
48 50 51 51 51 50 48 49 49 49 53 54 54 52 53 54 53 51 53 52 51 49 50 48 47 47 46 45 45 46 46 45 43 42 42 41 42 42 41 41 40 39 37 36
51 51 48 49 48 48 51 51 51 50 50 50 52 51 51 51 50 48 52 51 48 47 47 46 46 46 45 45 46 46 46 46 45 43 42 42 41 40 40 39 38 37 35 34
52 50 53 54 54 53 52 51 50 50 50 50 50 51 50 51 50 51 50 49 49 47 48 49 49 49 49 48 47 46 47 45 42 41 41 41 40 39 38 37 36 34 33 32
52 50 52 52 52 52 52 51 51 50 51 51 50 51 51 50 50 49 49 50 50 50 50 51 50 49 46 45 43 42 42 42 40 41 40 40 39 38 37 36 34 33 31 30